Location: Argonnex
(45.9500°N, 6.1333°E)
Time: 15:13:58
(UTC+00:00)

ATLAS 5 CENTAUR R/B - Visible Passes

Search period start: 30 September 2023 00:00
Search period end: 10 October 2023 00:00
Orbit: 469 x 1153 km, 63.3° (Epoch: 27 September)

Date Brightness Start Highest point End Pass type
(mag) Time Alt. Az. Time Alt. Az. Time Alt. Az.
30 Sep 4.2 02:42:03 10° N 02:42:03 10° N 02:42:19 10° N visible
03 Oct 4.2 04:56:20 10° N 04:59:09 15° NNE 05:02:14 10° ENE visible
04 Oct 4.2 04:31:44 10° N 04:34:14 14° NNE 04:36:58 10° ENE visible
05 Oct 4.3 04:07:08 10° N 04:09:18 13° NNE 04:11:38 10° NE visible
06 Oct 4.4 03:42:33 10° N 03:44:21 12° NNE 03:46:16 10° NE visible
07 Oct 4.4 03:18:02 10° N 03:19:23 11° NNE 03:20:48 10° NE visible
07 Oct 3.6 05:00:34 10° NNW 05:04:56 33° NE 05:10:06 10° ESE visible
08 Oct 4.5 02:53:42 10° N 02:54:24 10° NNE 02:55:08 10° NNE visible
08 Oct 3.8 04:35:51 10° NNW 04:40:03 29° NE 04:45:00 10° E visible
09 Oct 3.9 04:11:08 10° NNW 04:15:10 26° NE 04:19:51 10° E visible
